| time (UTC) | temp F | wind direction | speed MPH | gust MPH | rain 1hr in | rain 24hr in | rain mn in | humidity % | barometer mb |
| 20260502203504 | 57 | 78 | 1.0 | 5.0 | 0.00 | 0.03 | 0.03 | 50 | 1010.0 |
| 20260502201334 | 59 | 53 | 0.0 | 4.0 | 0.00 | 0.03 | 0.03 | 52 | 1010.2 |
| 20260502200309 | 58 | 41 | 1.0 | 7.0 | 0.00 | 0.03 | 0.03 | 50 | 1010.4 |
| 20260502195255 | 57 | 295 | 1.0 | 7.0 | 0.00 | 0.03 | 0.03 | 54 | 1010.4 |
| 20260502194252 | 56 | 51 | 0.0 | 4.0 | 0.00 | 0.03 | 0.03 | 59 | 1010.6 |
| 20260502193232 | 56 | 70 | 1.0 | 5.0 | 0.00 | 0.03 | 0.03 | 58 | 1010.9 |
| 20260502192223 | 56 | 224 | 1.0 | 5.0 | 0.00 | 0.03 | 0.03 | 57 | 1011.0 |
| 20260502191156 | 56 | 137 | 1.0 | 5.0 | 0.00 | 0.03 | 0.03 | 56 | 1011.1 |
| 20260502190203 | 56 | 2 | 1.0 | 5.0 | 0.00 | 0.03 | 0.03 | 56 | 1011.3 |
| 20260502185137 | 56 | 309 | 1.0 | 4.0 | 0.00 | 0.03 | 0.03 | 56 | 1011.4 |
| 20260502184107 | 55 | 28 | 0.0 | 4.0 | 0.00 | 0.03 | 0.03 | 58 | 1011.4 |
| 20260502183116 | 54 | 36 | 0.0 | 5.0 | 0.00 | 0.03 | 0.03 | 63 | 1011.6 |
| 20260502182048 | 53 | 326 | 1.0 | 5.0 | 0.00 | 0.03 | 0.03 | 64 | 1011.7 |
| 20260502181051 | 53 | 319 | 1.0 | 4.0 | 0.00 | 0.03 | 0.03 | 66 | 1011.6 |
| 20260502163927 | 50 | 328 | 1.0 | 3.0 | 0.00 | 0.03 | 0.03 | 79 | 1012.1 |
| 20260502162949 | 50 | 323 | 1.0 | 1.0 | 0.00 | 0.03 | 0.03 | 80 | 1012.2 |
| 20260502161920 | 50 | 306 | 0.0 | 0.0 | 0.00 | 0.03 | 0.03 | 79 | 1012.0 |
| 20260502160911 | 50 | 288 | 0.0 | 6.0 | 0.00 | 0.03 | 0.03 | 79 | 1012.0 |
| 20260502152001 | 53 | 319 | 0.0 | 3.0 | 0.00 | 0.03 | 0.03 | 77 | 1011.8 |
| 20260502130459 | 50 | 352 | 0.0 | 1.0 | 0.00 | 0.03 | 0.03 | 85 | 1012.1 |
| 20260502123457 | 49 | 245 | 0.0 | 0.0 | 0.00 | 0.03 | 0.03 | 90 | 1012.1 |
| 20260502122508 | 49 | 36 | 0.0 | 0.0 | 0.00 | 0.03 | 0.03 | 90 | 1012.0 |
| 20260502121512 | 49 | 257 | 0.0 | 0.0 | 0.00 | 0.03 | 0.03 | 92 | 1012.0 |
| 20260502120500 | 49 | 186 | 0.0 | 0.0 | 0.00 | 0.03 | 0.03 | 94 | 1012.2 |
| 20260502114357 | 47 | 68 | 0.0 | 0.0 | 0.00 | 0.03 | 0.03 | 95 | 1012.0 |
| 20260502113421 | 47 | 68 | 0.0 | 0.0 | 0.00 | 0.03 | 0.03 | 95 | 1012.2 |
| 20260502112443 | 47 | 68 | 0.0 | 0.0 | 0.00 | 0.03 | 0.03 | 95 | 1011.9 |
| 20260502111420 | 47 | 68 | 0.0 | 0.0 | 0.00 | 0.03 | 0.03 | 96 | 1011.9 |
| 20260502110431 | 46 | 68 | 0.0 | 0.0 | 0.00 | 0.03 | 0.03 | 95 | 1012.0 |
| 20260502105437 | 46 | 68 | 0.0 | 0.0 | 0.00 | 0.03 | 0.03 | 95 | 1012.0 |
| 20260502103323 | 46 | 68 | 0.0 | 0.0 | 0.00 | 0.03 | 0.03 | 94 | 1011.8 |
| 20260502102257 | 46 | 68 | 0.0 | 0.0 | 0.00 | 0.03 | 0.03 | 94 | 1011.9 |
| 20260502100156 | 46 | 68 | 0.0 | 0.0 | 0.00 | 0.02 | 0.02 | 94 | 1012.1 |
| 20260502091132 | 46 | 68 | 0.0 | 0.0 | 0.00 | 0.01 | 0.01 | 94 | 1011.7 |
| 20260502090129 | 46 | 68 | 0.0 | 0.0 | 0.00 | 0.01 | 0.01 | 94 | 1011.9 |
| 20260502070634 | 47 | 186 | 0.0 | 0.0 | 0.00 | 0.00 | 0.00 | 92 | 1011.6 |
| 20260502065651 | 47 | 186 | 0.0 | 0.0 | 0.00 | 0.00 | 0.00 | 92 | 1011.6 |
| 20260502064630 | 47 | 186 | 0.0 | 0.0 | 0.00 | 0.00 | 0.00 | 91 | 1011.6 |
| 20260502063614 | 47 | 186 | 0.0 | 0.0 | 0.00 | 0.00 | 0.00 | 90 | 1011.8 |
| 20260502062631 | 47 | 65 | 0.0 | 0.0 | 0.00 | 0.00 | 0.00 | 90 | 1011.8 |
| 20260502060514 | 48 | 110 | 0.0 | 0.0 | 0.00 | 0.00 | 0.00 | 87 | 1011.9 |
| 20260502055539 | 49 | 13 | 0.0 | 0.0 | 0.00 | 0.00 | 0.00 | 85 | 1011.7 |
| 20260502054505 | 48 | 346 | 0.0 | 0.0 | 0.00 | 0.00 | 0.00 | 84 | 1012.1 |
| 20260502053443 | 48 | 346 | 0.0 | 0.0 | 0.00 | 0.00 | 0.00 | 84 | 1012.1 |
| 20260502052427 | 48 | 346 | 0.0 | 0.0 | 0.00 | 0.00 | 0.00 | 83 | 1011.8 |
| 20260502051447 | 49 | 346 | 0.0 | 0.0 | 0.00 | 0.00 | 0.00 | 82 | 1011.7 |
| 20260502045413 | 49 | 346 | 0.0 | 0.0 | 0.00 | 0.00 | 0.00 | 81 | 1012.0 |
| 20260502043253 | 49 | 345 | 0.0 | 0.0 | 0.00 | 0.00 | 0.00 | 80 | 1012.1 |
| 20260502042313 | 49 | 345 | 0.0 | 0.0 | 0.00 | 0.00 | 0.00 | 80 | 1012.0 |
| 20260502041318 | 49 | 345 | 0.0 | 0.0 | 0.00 | 0.00 | 0.00 | 80 | 1012.1 |
| 20260502035204 | 49 | 345 | 0.0 | 0.0 | 0.00 | 0.00 | 0.00 | 79 | 1012.1 |
| 20260502034228 | 49 | 345 | 0.0 | 0.0 | 0.00 | 0.00 | 0.00 | 80 | 1011.8 |
| 20260502033204 | 49 | 345 | 0.0 | 0.0 | 0.00 | 0.00 | 0.00 | 79 | 1011.9 |
| 20260502031112 | 49 | 345 | 0.0 | 0.0 | 0.00 | 0.00 | 0.00 | 79 | 1012.2 |
| 20260502024921 | 49 | 345 | 0.0 | 0.0 | 0.00 | 0.00 | 0.00 | 79 | 1012.3 |
| 20260502023930 | 49 | 345 | 0.0 | 0.0 | 0.00 | 0.00 | 0.00 | 79 | 1012.2 |
| 20260502022945 | 49 | 345 | 0.0 | 0.0 | 0.00 | 0.00 | 0.00 | 78 | 1012.1 |
| 20260502021931 | 50 | 345 | 0.0 | 0.0 | 0.00 | 0.00 | 0.00 | 77 | 1012.2 |
| 20260502020902 | 50 | 345 | 0.0 | 0.0 | 0.00 | 0.00 | 0.00 | 75 | 1012.2 |
| 20260502015855 | 51 | 345 | 0.0 | 0.0 | 0.00 | 0.00 | 0.00 | 73 | 1012.2 |
| 20260502014846 | 52 | 345 | 0.0 | 0.0 | 0.00 | 0.00 | 0.00 | 71 | 1012.2 |
| 20260502012638 | 53 | 345 | 0.0 | 0.0 | 0.00 | 0.00 | 0.00 | 69 | 1012.3 |
| 20260502011612 | 53 | 44 | 0.0 | 0.0 | 0.00 | 0.00 | 0.00 | 69 | 1012.4 |
| 20260502010622 | 53 | 349 | 0.0 | 0.0 | 0.00 | 0.00 | 0.00 | 69 | 1012.3 |
| 20260502004427 | 53 | 241 | 0.0 | 1.0 | 0.00 | 0.00 | 0.00 | 66 | 1012.1 |
| 20260502003426 | 54 | 65 | 0.0 | 0.0 | 0.00 | 0.00 | 0.00 | 65 | 1012.0 |
| 20260502002432 | 54 | 9 | 0.0 | 0.0 | 0.00 | 0.00 | 0.00 | 65 | 1012.0 |
| 20260502001419 | 55 | 232 | 0.0 | 0.0 | 0.00 | 0.00 | 0.00 | 64 | 1011.7 |
| 20260501234054 | 57 | 150 | 0.0 | 0.0 | 0.00 | 0.00 | 0.00 | 60 | 1011.0 |
| 20260501233054 | 57 | 70 | 0.0 | 2.0 | 0.00 | 0.00 | 0.00 | 58 | 1010.7 |
| 20260501232040 | 58 | 143 | 0.0 | 0.0 | 0.00 | 0.00 | 0.00 | 57 | 1010.7 |
| 20260501231053 | 59 | 150 | 0.0 | 3.0 | 0.00 | 0.00 | 0.00 | 55 | 1010.3 |
| 20260501230100 | 60 | 191 | 0.0 | 3.0 | 0.00 | 0.00 | 0.00 | 50 | 1010.2 |
| 20260501223939 | 62 | 111 | 0.0 | 0.0 | 0.00 | 0.00 | 0.00 | 42 | 1010.0 |
| 20260501223000 | 62 | 105 | 0.0 | 1.0 | 0.00 | 0.00 | 0.00 | 40 | 1010.0 |
| 20260501221952 | 63 | 138 | 0.0 | 4.0 | 0.00 | 0.00 | 0.00 | 39 | 1010.1 |
| 20260501220943 | 64 | 318 | 0.0 | 1.0 | 0.00 | 0.00 | 0.00 | 38 | 1010.0 |
| 20260501215944 | 64 | 119 | 0.0 | 2.0 | 0.00 | 0.00 | 0.00 | 39 | 1010.2 |
| 20260501211539 | 63 | 31 | 0.0 | 4.0 | 0.00 | 0.00 | 0.00 | 39 | 1010.1 |
| 20260501210536 | 65 | 43 | 1.0 | 4.0 | 0.00 | 0.00 | 0.00 | 38 | 1010.1 |
| 20260501204442 | 63 | 83 | 0.0 | 5.0 | 0.00 | 0.00 | 0.00 | 38 | 1010.1 |